TITAN 3C TRANSTAGE DEB, 27794

Orbit data source: Space-Track

TITAN 3C TRANSTAGE DEB, 27794 is space debris in HEO originally from a launch on Tue, 21 Dec 1965 UTC launched from the Air Force Eastern Test Range (AFETR). Debris objects in space refer to the collection of defunct objects orbiting the Earth. Examples of debris include non-operational satellites, rocket bodies, and fragments generated from explosions, collisions, or faulty payload assembly.

Loading next visibility...
Identifier
27794, 1965-108BJ
Orbit
HEO
Country
Flag of USUS
Related business
Manufacturer
Unknown
Mission
Spacecraft
Bus & Motor
Unknown
Mass
Unknown
Launch date (UTC)
1965-12-21 (61 years ago)
Launch vehicle
Unknown
Launch site
Air Force Eastern Test Range (AFETR)
Object type
Payload
Rocket body
Debris
Shape & HBR
Unknown shape, 0.1 m
Radar Cross Section
Medium (>0.1 m² and <1 m²)

Expand to show TLE details & history
Last TLE update: 2 days ago

TLE from 2 days ago
0 TITAN 3C TRANSTAGE DEB
1 27794U 65108BJ  26176.59643685 -.00000149  00000-0 -81826-3 0  9991
2 27794  26.3338 128.8324 6697949 184.8870 358.9137  2.77204364123175
Epoch: 2026-06-25T14:18Z
TLE epoch observation values (Epoch: 2026-06-25T14:18:52.143Z)
Latitude
0.67534°
Longitude
178.99751°
Altitude
705.52 km
Speed
9.691 km/s
True Right ascension
20h 29m 48s
True Declination
0° 40' 17"
Sunlit
Object was in full shadow at epoch
Visualization orbit readout
Latitude
Unknown
Longitude
Unknown
Altitude
Unknown
Speed
Unknown
Apparent Right ascension
Unknown
Apparent Declination
Unknown
Sunlit
N/A
Visualization observer readout
Local Sidereal Time
07:45:14
Azimuth
Unknown
Elevation
Unknown
Doppler factor
Unknown
Orbital elements
Apogee altitude
29,371.398 km
Perigee altitude
691.401 km
Semi-major axis
21,409.536 km
Eccentricity
0.66979
Inclination
26.3338°
RAAN
128.8324°
Arg. of periapsis
184.887°
True anomaly
352.61856°
Mean anomaly
358.9137°
Eccentric anomaly
356.71388°
Mean motion
0.69284 °/min
Orbital period
519.6 mins
BSTAR
-0.00081826
Loading maneuver chart data...
Computing Atmospheric mass density...

Documentation

Showing up to 5 results
|